Weather History for Warroad, MN

Change the Weather History Date:

Friday, December 28, 2012

  Actual Average Record
Temperature  
Mean Temperature 12 °F -  
Max Temperature 17 °F 16 °F 38 °F (1955)
Min Temperature 8 °F -3 °F -29 °F (1967)
Degree Days  
Heating Degree Days 52    
Moisture  
Dew Point 8 °F    
Average Humidity 84    
Maximum Humidity 92    
Minimum Humidity 73    
Precipitation  
Precipitation 0.00 in - - ()
Sea Level Pressure  
Sea Level Pressure 30.04 in    
Wind  
Wind Speed 3 mph (SSW)    
Max Wind Speed 8 mph    
Max Gust Speed -    
Visibility 6 miles    
Events Snow    
Averages and records for this station are not official NWS values.
T = Trace of Precipitation, MM = Missing Value Source: NWS Daily Summary

Daily Weather History Graph

Daily Weather History Graph

Search for Another Location

Airport:

Trip Planner

Search our weather history database for the weather conditions in past years. The results will help you decide how hot, cold, wet, or windy it might be!

Date:

Astronomy

Dec. 28, 2012 Rise Set
Actual Time 8:15 AM CST 4:31 PM CST
Civil Twilight 7:37 AM CST 5:08 PM CST
Nautical Twilight 6:57 AM CST 5:49 PM CST
Astronomical Twilight 6:18 AM CST 6:27 PM CST
Moon 5:14 PM CST (12/28) 8:05 AM CST (12/28)
Length of Visible Light 9h 31m
Length of Day
8h 16m
Full, 100% of the Moon is Illuminated
Dec 28
Full
Jan 4
Last Quarter
Jan 11
New
Jan 18
First Quarter
Jan 26
Full

Hourly Weather History & Observations

Time (CST) Temp. Windchill Dew Point Humidity Pressure Visibility Wind Dir Wind Speed Gust Speed Precip Events Conditions
12:14 AM 8.6 °F 2.0 °F 5.0 °F 85% 30.13 in 4.0 mi ESE 3.5 mph - N/A Snow Light Snow
12:34 AM 8.6 °F - 5.0 °F 85% 30.13 in 5.0 mi Calm Calm - N/A Snow Light Snow
12:54 AM 8.6 °F - 5.0 °F 85% 30.13 in 4.0 mi Calm Calm - N/A Snow Light Snow
1:14 AM 8.6 °F - 6.8 °F 92% 30.12 in 3.0 mi Calm Calm - N/A Snow Light Snow
1:34 AM 8.6 °F - 6.8 °F 92% 30.12 in 4.0 mi Calm Calm - N/A Snow Light Snow
1:54 AM 8.6 °F - 6.8 °F 92% 30.12 in 5.0 mi Calm Calm - N/A Snow Light Snow
2:14 AM 10.4 °F - 6.8 °F 85% 30.12 in 5.0 mi Calm Calm - N/A Snow Light Snow
2:34 AM 8.6 °F 2.0 °F 6.8 °F 92% 30.11 in 5.0 mi SSE 3.5 mph - N/A Snow Light Snow
2:54 AM 8.6 °F 2.0 °F 5.0 °F 85% 30.11 in 5.0 mi SSE 3.5 mph - N/A Snow Light Snow
3:14 AM 8.6 °F - 6.8 °F 92% 30.11 in 7.0 mi Calm Calm - N/A Snow Light Snow
3:34 AM 8.6 °F 2.0 °F 3.2 °F 79% 30.10 in 7.0 mi South 3.5 mph - N/A Snow Light Snow
3:54 AM 8.6 °F - 3.2 °F 79% 30.10 in 7.0 mi Calm Calm - N/A Snow Light Snow
4:14 AM 8.6 °F - 3.2 °F 79% 30.09 in 5.0 mi Calm Calm - N/A Snow Light Snow
4:34 AM 8.6 °F 2.0 °F 3.2 °F 79% 30.09 in 7.0 mi South 3.5 mph - N/A Snow Light Snow
5:34 AM 8.6 °F 2.0 °F 5.0 °F 85% 30.08 in 5.0 mi South 3.5 mph - N/A Snow Light Snow
5:54 AM 8.6 °F - 5.0 °F 85% 30.08 in 7.0 mi Calm Calm - N/A Snow Light Snow
6:14 AM 8.6 °F - 5.0 °F 85% 30.08 in 4.0 mi Calm Calm - N/A Snow Light Snow
6:34 AM 8.6 °F - 5.0 °F 85% 30.08 in 3.0 mi Calm Calm - N/A Snow Light Snow
6:54 AM 8.6 °F - 3.2 °F 79% 30.08 in 4.0 mi Calm Calm - N/A Snow Light Snow
7:14 AM 8.6 °F - 3.2 °F 79% 30.08 in 4.0 mi Calm Calm - N/A Snow Light Snow
7:34 AM 8.6 °F - 5.0 °F 85% 30.07 in 7.0 mi Calm Calm - N/A Snow Light Snow
7:54 AM 8.6 °F - 5.0 °F 85% 30.07 in 10.0 mi Calm Calm - N/A Snow Light Snow
8:14 AM 8.6 °F - 3.2 °F 79% 30.07 in 10.0 mi Calm Calm - N/A   Overcast
8:34 AM 8.6 °F - 5.0 °F 85% 30.07 in 5.0 mi Calm Calm - N/A Snow Light Snow
8:54 AM 8.6 °F - 5.0 °F 85% 30.08 in 1.0 mi Calm Calm - N/A Snow Light Snow
9:14 AM 8.6 °F - 6.8 °F 92% 30.08 in 2.5 mi Calm Calm - N/A Snow Light Snow
9:34 AM 10.4 °F - 6.8 °F 85% 30.08 in 3.0 mi Calm Calm - N/A Snow Light Snow
9:54 AM 10.4 °F 2.2 °F 6.8 °F 85% 30.08 in 3.0 mi South 4.6 mph - N/A Snow Light Snow
10:14 AM 10.4 °F 2.2 °F 6.8 °F 85% 30.08 in 3.0 mi SSW 4.6 mph - N/A Snow Light Snow
10:34 AM 12.2 °F 4.3 °F 8.6 °F 85% 30.07 in 1.8 mi SSW 4.6 mph - N/A Snow Light Snow
10:54 AM 12.2 °F 4.3 °F 8.6 °F 85% 30.07 in 3.0 mi SSW 4.6 mph - N/A Snow Light Snow
11:14 AM 12.2 °F 4.3 °F 8.6 °F 85% 30.06 in 2.5 mi SSW 4.6 mph - N/A Snow Light Snow
11:34 AM 12.2 °F 2.9 °F 8.6 °F 85% 30.06 in 5.0 mi SSW 5.8 mph - N/A   Haze
12:14 PM 12.2 °F 2.9 °F 8.6 °F 85% 30.05 in 2.0 mi SSW 5.8 mph - N/A Snow Light Snow
12:34 PM 14.0 °F 6.5 °F 8.6 °F 79% 30.04 in 2.0 mi SSW 4.6 mph - N/A Snow Light Snow
12:54 PM 14.0 °F 3.9 °F 8.6 °F 79% 30.03 in 4.0 mi SW 6.9 mph - N/A Snow Light Snow
1:14 PM 15.8 °F 8.6 °F 10.4 °F 79% 30.02 in 4.0 mi SSW 4.6 mph - N/A Snow Light Snow
1:34 PM 15.8 °F 8.6 °F 10.4 °F 79% 30.01 in 5.0 mi SSW 4.6 mph - N/A Snow Light Snow
1:54 PM 17.6 °F 10.7 °F 10.4 °F 73% 30.01 in 5.0 mi SSW 4.6 mph - N/A Snow Light Snow
2:14 PM 17.6 °F 10.7 °F 10.4 °F 73% 30.01 in 10.0 mi SSW 4.6 mph - N/A   Mostly Cloudy
2:34 PM 17.6 °F 10.7 °F 12.2 °F 79% 30.01 in 2.5 mi SSW 4.6 mph - N/A Snow Light Snow
2:54 PM 17.6 °F 10.7 °F 12.2 °F 79% 30.01 in 2.5 mi SSW 4.6 mph - N/A Snow Light Snow
3:14 PM 17.6 °F 8.2 °F 12.2 °F 79% 30.00 in 2.5 mi SSW 6.9 mph - N/A Snow Light Snow
3:33 PM 17.6 °F 9.3 °F 12.2 °F 79% 30.00 in 4.0 mi SSW 5.8 mph - N/A Snow Light Snow
3:54 PM 17.6 °F 12.3 °F 12.2 °F 79% 30.00 in 3.0 mi SSW 3.5 mph - N/A Snow Light Snow
4:34 PM 17.6 °F 8.2 °F 12.2 °F 79% 30.00 in 3.0 mi SW 6.9 mph - N/A Snow Light Snow
4:54 PM 15.8 °F 7.2 °F 12.2 °F 86% 30.00 in 5.0 mi SW 5.8 mph - N/A Snow Light Snow
5:14 PM 15.8 °F 8.6 °F 10.4 °F 79% 30.00 in 10.0 mi SSW 4.6 mph - N/A   Mostly Cloudy
5:34 PM 14.0 °F 8.2 °F 10.4 °F 86% 30.00 in 10.0 mi South 3.5 mph - N/A   Scattered Clouds
5:54 PM 12.2 °F 6.1 °F 8.6 °F 85% 30.00 in 10.0 mi South 3.5 mph - N/A   Mostly Cloudy
6:14 PM 12.2 °F 4.3 °F 8.6 °F 85% 30.00 in 7.0 mi SSW 4.6 mph - N/A   Mostly Cloudy
6:34 PM 12.2 °F 4.3 °F 8.6 °F 85% 30.00 in 5.0 mi SSW 4.6 mph - N/A Snow Light Snow
6:54 PM 12.2 °F 4.3 °F 8.6 °F 85% 29.99 in 7.0 mi SSW 4.6 mph - N/A Snow Light Snow
7:14 PM 10.4 °F 4.0 °F 8.6 °F 92% 29.99 in 7.0 mi SSW 3.5 mph - N/A Snow Light Snow
7:34 PM 12.2 °F 2.9 °F 8.6 °F 85% 29.99 in 7.0 mi SSW 5.8 mph - N/A   Mostly Cloudy
7:54 PM 12.2 °F 2.9 °F 8.6 °F 85% 29.99 in 7.0 mi South 5.8 mph - N/A   Mostly Cloudy
8:14 PM 12.2 °F 4.3 °F 8.6 °F 85% 29.98 in 7.0 mi SSW 4.6 mph - N/A   Scattered Clouds
8:34 PM 12.2 °F 2.9 °F 8.6 °F 85% 29.98 in 10.0 mi SW 5.8 mph - N/A   Overcast
8:54 PM 12.2 °F 0.7 °F 8.6 °F 85% 29.97 in 7.0 mi SSW 8.1 mph - N/A   Mostly Cloudy
9:14 PM 12.2 °F 1.7 °F 8.6 °F 85% 29.97 in 10.0 mi SSW 6.9 mph - N/A   Overcast
9:34 PM 12.2 °F 1.7 °F 8.6 °F 85% 29.96 in 10.0 mi SSW 6.9 mph - N/A   Overcast
9:54 PM 12.2 °F 2.9 °F 8.6 °F 85% 29.97 in 10.0 mi SW 5.8 mph - N/A   Mostly Cloudy
10:14 PM 12.2 °F 1.7 °F 8.6 °F 85% 29.97 in 7.0 mi SW 6.9 mph - N/A   Mostly Cloudy
10:35 PM 10.4 °F -1.5 °F 8.6 °F 92% 29.96 in 10.0 mi SW 8.1 mph - N/A   Overcast
10:54 PM 10.4 °F -0.4 °F 6.8 °F 85% 29.97 in 7.0 mi SW 6.9 mph - N/A   Overcast
11:14 PM 10.4 °F 2.2 °F 6.8 °F 85% 29.96 in 7.0 mi SSW 4.6 mph - N/A Snow Light Snow
11:34 PM 10.4 °F -0.4 °F 6.8 °F 85% 29.96 in 5.0 mi SSW 6.9 mph - N/A Snow Light Snow
11:54 PM 10.4 °F -1.5 °F 6.8 °F 85% 29.96 in 5.0 mi SSW 8.1 mph - N/A Snow Light Snow